Skip Page Navigation
NASA JPL Caltech
NASA Logo - Jet Propulsion Laboratory + View the NASA Portal
+ Center for Near-Earth Object Studies
JPL Home Earth Solar System Stars & Galaxies Technology
JPL Solar System Dynamics
BODIES ORBITS EPHEMERIDES TOOLS PHYSICAL DATA DISCOVERY FAQ SITE MAP
IMPORTANT: The SSD Announcement email list is now available. Major changes are coming in the near future, including possible hostname and/or URL changes. To be notified of such changes, subscribe to this email list.

Please visit this page for more details.


JPL Small-Body Database Browser
Search: [ help ]  
1439 Vogtia (1937 TE)
Classification: Outer Main-belt Asteroid          SPK-ID: 2001439
Ephemeris | Orbit Diagram | Orbital Elements | Mission Design | Physical Parameters | Discovery Circumstances | Close-Approach Data ]

[ hide orbit diagram ]

For accurate long-term ephemerides, please instead use our Horizons system.This orbit viewer was implemented using two-body methods, and hence should not be used for determining accurate long-term trajectories (over several years or decades) or planetary encounter circumstances.


[ revert to old Java-based viewer ]

Orbital Elements at Epoch 2458600.5 (2019-Apr-27.0) TDB
Reference: JPL 28 (heliocentric ecliptic J2000)
 Element Value Uncertainty (1-sigma)   Units 
e .117203180557517 4.2734e-08  
a 4.000373112163908 3.2208e-08 au
q 3.531516660001525 1.7992e-07 au
i 4.202590304729103 4.2836e-06 deg
node 35.56392528992625 6.0688e-05 deg
peri 101.8142005168699 6.3435e-05 deg
M 349.2606647652146 1.871e-05 deg
tp 2458687.681447370794
(2019-Jul-23.18144737)
0.00015214 TDB
period 2922.464041519701
8.00
3.5294e-05
9.663e-08
d
yr
n .1231837226687647 1.4877e-09 deg/d
Q 4.469229564326291 3.5983e-08 au
  Orbit Determination Parameters
   # obs. used (total)      2429  
   data-arc span      29798 days (81.58 yr)  
   first obs. used      1937-10-11  
   last obs. used      2019-05-12  
   planetary ephem.      DE431  
   SB-pert. ephem.      SB431-N16  
   condition code      0  
   norm. resid. RMS      .48305  
   source      ORB  
   producer      Otto Matic  
   solution date      2019-May-29 19:23:02  

Additional Information
 Earth MOID = 2.54907 au 
 Jupiter MOID = .60027 au 
 T_jup = 3.038 
[ show covariance matrix ]

Ephemeris | Orbit Diagram | Orbital Elements | Mission Design | Physical Parameters | Discovery Circumstances | Close-Approach Data ]

Physical Parameter Table
Parameter Symbol Value Units Sigma Reference Notes
absolute magnitude H 10.45   n/a IRAS-A-FPA-3-RDR-IMPS-V6.0 IRAS observations used: 3
diameter diameter 50.561 km 0.568 urn:nasa:pds:neowise_diameters_albedos::2.0[hildas] (http://adsabs.harvard.edu/abs/2012ApJ...744..197G)  
rotation period rot_per 12.898 h n/a LCDB (Rev. 2019-January); Warner et al., 2009 Published Reference List:
[Dahlgren, M.; Lahulla, J.F.; Lagerkvist, C.-I.; Lagerros, J.; et al. (1998) Icarus 133, 247-285.]
[Warner, B.D.; Stephens, R.D.; Coley, D.R. (2017) Minor Planet Bull. 44, 130-137.]
[Warner, B.D.; Stephens, R.D.; Coley, D.R. (2018) Minor Planet Bull. 45, 147-161.]
geometric albedo albedo 0.046   0.012 urn:nasa:pds:neowise_diameters_albedos::2.0[hildas] (http://adsabs.harvard.edu/abs/2012ApJ...744..197G)  
B-V BV 0.750   0.045 EAR-A-5-DDR-UBV-MEAN-VALUES-V1.2 #obs=1; phase=9.97 deg.
U-B UB 0.320   0.071 EAR-A-5-DDR-UBV-MEAN-VALUES-V1.2 #obs=1; phase=9.97 deg.
Tholen spectral type spec_T XFU   n/a EAR-A-5-DDR-TAXONOMY-V4.0 used 7 color indices

1439 Vogtia (1937 TE)          Discovered 1937-Oct-11 by Reinmuth, K. at Heidelberg
Reference: DISCOVERY.DBLast Updated: 2003-08-29

[ hide close-approach data ]
Close-Approach Data   ...sorted by Date/Time (TDB)
Date/Time (TDB) Time Uncertainty
(days_HH:MM)
Body Nominal Distance (au) Minimum Distance (au) Maximum Distance (au) V-relative (km/s) V-infinity (km/s) JD (TDB) Time Uncertainty (minutes) Semi-major axis (km) Semi-minor axis (km) range-LOV angle (deg) N-sigma BP Orbit Ref. Reference Modified
1908-Nov-18 00:46 00:01 Jupiter 1.93724080060879 1.9372403066834 1.93724129453417 4.41457377161207 4.31439436958544 2418263.531866242 1.29046169305172 52.294677122777 22.3810216178495 -87.0808669596404 4129173.78258325 T 28 CATAB v2.0e-lin.ifort 2019-May-29 19:23:12 2019-May-29 19:23
1932-Feb-19 17:11 00:02 Jupiter 1.85083335234315 1.85083274521526 1.85083395947103 4.11306062564388 4.000247491631 2426757.215682792 1.66331054094944 50.4303407891408 24.8545419386523 -75.8609241978281 3263284.68195426 T 28 CATAB v2.0e-lin.ifort 2019-May-29 19:23:12 2019-May-29 19:23
1955-Sep-29 04:08 00:02 Jupiter 1.81419077228804 1.81419004576755 1.81419149880854 3.99785987739172 3.87931812650658 2435379.672349344 1.75971356650807 50.0568794896426 28.2950491095694 -68.3146460090504 2758672.19376556 T 28 CATAB v2.0e-lin.ifort 2019-May-29 19:23:12 2019-May-29 19:23
1979-Sep-20 07:43 00:01 Jupiter 1.82376503355031 1.82376439937864 1.82376566772197 4.05687212999958 3.94072824029858 2444136.821574879 1.26227365305326 47.3470548206719 26.6717882118715 -76.1372676084885 3137817.73094837 T 28 CATAB v2.0e-lin.ifort 2019-May-29 19:23:12 2019-May-29 19:23
2003-Dec-04 08:59 < 00:01 Jupiter 1.84547314662941 1.84547258975229 1.84547370350653 4.1238801539913 4.01103993261445 2452977.874454402 0.448230915665389 45.844318118194 24.8419983323765 -87.0645942886521 3561167.59018002 T 28 CATAB v2.0e-lin.ifort 2019-May-29 19:23:12 2019-May-29 19:23
2028-Mar-04 11:09 < 00:01 Jupiter 1.83574205650705 1.83574146124951 1.83574265176459 4.03726272306107 3.92131077168226 2461834.964483520 0.780536373101344 51.8321585025725 25.8143966915621 83.0827414267039 3375551.53397921 T 28 CATAB v2.0e-lin.ifort 2019-May-29 19:23:12 2019-May-29 19:23
2052-Apr-03 08:28 00:02 Jupiter 1.81368193346155 1.81368122873568 1.81368263818752 3.89583239478905 3.77405267582602 2470630.852698985 1.56695492931704 64.3016293661544 27.0574178262194 75.7801860754719 2998398.84294302 T 28 CATAB v2.0e-lin.ifort 2019-May-29 19:23:12 2019-May-29 19:23
2076-Jan-02 15:32 00:02 Jupiter 1.84050769220711 1.84050701141159 1.84050837300283 3.94584743327257 3.82743899778634 2479305.147103943 1.86627734282981 68.3325616195102 25.8017813660004 76.7993187574255 3132856.69530672 T 28 CATAB v2.0e-lin.ifort 2019-May-29 19:23:12 2019-May-29 19:23
2099-May-19 05:34 00:02 Jupiter 1.91394646845859 1.91394599119734 1.91394694571985 4.23856323619354 4.1328334775857 2487842.731973127 1.64062142211001 61.0188147266091 21.082357589931 86.6484553840042 4172381.11029376 T 28 CATAB v2.0e-lin.ifort 2019-May-29 19:23:12 2019-May-29 19:23
2122-Jun-28 12:46 00:01 Jupiter 1.99283061204535 1.99283016115968 1.99283106293103 4.62575138925088 4.5329357109288 2496283.031900265 1.34379559622267 52.2540546091101 20.2184979826386 -83.8647214702189 4750062.06982042 T 28 CATAB v2.0e-lin.ifort 2019-May-29 19:23:12 2019-May-29 19:23
2168-Jul-26 06:00 00:02 Jupiter 1.94402147024705 1.94402095152861 1.9440219889656 4.67426673284362 4.58010444996639 2513112.750023507 1.74687958170853 44.4223588843733 20.0136121526744 -69.5298757905478 4816717.69969831 T 28 CATAB v2.0e-lin.ifort 2019-May-29 19:23:12 2019-May-29 19:23
2191-Nov-02 17:52 00:02 Jupiter 1.8611083945415 1.8611076485266 1.86110914055651 4.41946172106623 4.31525288065824 2521612.244188980 1.94506219618955 45.6732991833486 27.6127328732054 -55.0828243916239 3243684.62995155 T 28 CATAB v2.0e-lin.ifort 2019-May-29 19:23:12 2019-May-29 19:23

Alternate Designations
 1937 TE = 1953 UJ = 1957 HP = 1964 FC 
Ephemeris | Orbit Diagram | Orbital Elements | Mission Design | Physical Parameters | Discovery Circumstances | Close-Approach Data ]
ABOUT SSD CREDITS/AWARDS PRIVACY/COPYRIGHT GLOSSARY LINKS
FirstGov 2019-Dec-11 14:54 UT
(server date/time)  
NASA Home Page
Site Manager:   Ryan S. Park
Webmaster  Alan B. Chamberlin